Location: Doughton Park
(36.4224°N, 81.1835°W)
Time: 16:35:11
(UTC-04:00)

ISS - All Passes

Search period start: 25 July 2014 00:00
Search period end: 04 August 2014 00:00
Orbit: 411 x 420 km, 51.6° (Epoch: 25 July)

Date Brightness Start Highest point End Pass type
(mag) Time Alt. Az. Time Alt. Az. Time Alt. Az.
25 Jul - 00:31:57 10° S 00:34:10 17° SE 00:36:23 10° E night (unlit)
25 Jul - 02:07:26 10° WSW 02:10:38 41° NW 02:13:50 10° NE visible
25 Jul - 07:02:37 10° N 07:04:17 13° NNE 07:05:56 10° NE daylight
25 Jul - 08:38:07 10° NW 08:41:29 76° NE 08:44:50 10° SE daylight
26 Jul - 01:18:29 10° SW 01:21:49 78° NW 01:25:11 10° NE visible
26 Jul - 02:57:21 10° NW 02:59:01 13° NNW 03:00:42 10° N visible
26 Jul - 07:49:28 10° NW 07:52:41 41° NE 07:55:52 10° ESE daylight
26 Jul - 09:26:53 10° W 09:29:09 17° SW 09:31:25 10° S daylight
27 Jul - 00:29:50 10° SSW 00:33:05 53° SE 00:36:22 10° ENE night (unlit)
27 Jul - 02:07:36 10° WNW 02:10:02 18° NNW 02:12:28 10° NNE visible
27 Jul - 07:00:57 10° NNW 07:03:49 25° NNE 07:06:40 10° E daylight
27 Jul - 08:37:31 10° WNW 08:40:33 31° SW 08:43:33 10° SSE daylight
27 Jul - 23:41:34 10° SSW 23:44:26 27° SE 23:47:20 10° ENE night (unlit)
28 Jul - 01:18:11 10° W 01:21:07 27° NNW 01:24:03 10° NNE visible
28 Jul - 06:12:35 10° NNW 06:14:53 17° NNE 06:17:11 10° ENE daylight
28 Jul - 07:48:33 10° NW 07:51:53 62° SW 07:55:11 10° SE daylight
28 Jul - 22:53:54 10° SSE 22:55:52 15° SE 22:57:49 10° E night (unlit)
29 Jul - 00:29:03 10° WSW 00:32:17 46° NW 00:35:32 10° NE night (unlit)
29 Jul - 02:09:12 10° NNW 02:09:41 10° NNW 02:10:11 10° N visible
29 Jul - 05:24:26 10° N 05:25:54 12° NNE 05:27:22 10° NE visible
29 Jul - 06:59:48 10° NW 07:03:09 67° NE 07:06:30 10° ESE daylight
29 Jul - 08:39:04 10° WSW 08:39:26 10° SW 08:39:48 10° SW daylight
29 Jul - 23:40:12 10° SW 23:43:31 87° NW 23:46:53 10° NE night (unlit)
30 Jul - 01:18:50 10° WNW 01:20:40 14° NNW 01:22:31 10° N visible
30 Jul - 06:11:13 10° NW 06:14:23 37° NE 06:17:31 10° ESE daylight
30 Jul - 07:48:26 10° W 07:50:54 19° SW 07:53:21 10° S daylight
30 Jul - 22:51:39 10° SSW 22:54:51 47° SE 22:58:05 10° ENE night (unlit)
31 Jul - 00:29:12 10° WNW 00:31:44 20° NNW 00:34:17 10° NNE night (unlit)
31 Jul - 05:22:46 10° NNW 05:25:32 23° NNE 05:28:18 10° E visible
31 Jul - 06:59:12 10° WNW 07:02:19 35° SW 07:05:25 10° SSE daylight
31 Jul - 22:03:30 10° S 22:06:15 24° SE 22:09:01 10° ENE night (unlit)
31 Jul - 23:39:53 10° W 23:42:52 30° NNW 23:45:53 10° NNE night (unlit)
01 Aug - 04:34:27 10° NNW 04:36:38 16° NNE 04:38:49 10° ENE visible
01 Aug - 06:10:20 10° NW 06:13:41 71° SW 06:17:01 10° SE daylight
01 Aug - 21:16:04 10° SSE 21:17:43 13° SE 21:19:22 10° E visible
01 Aug - 22:50:50 10° WSW 22:54:05 51° NW 22:57:22 10° NE visible
02 Aug - 00:30:35 10° NW 00:31:27 11° NNW 00:32:20 10° N night (unlit)
02 Aug - 03:46:25 10° N 03:47:41 12° NNE 03:48:56 10° NE visible
02 Aug - 05:21:39 10° NW 05:24:59 60° NE 05:28:18 10° ESE visible
02 Aug - 07:00:07 10° WSW 07:01:19 12° SW 07:02:30 10° SSW daylight
02 Aug - 22:02:04 10° SW 22:05:23 83° SE 22:08:44 10° NE visible
02 Aug - 23:40:31 10° WNW 23:42:30 15° NNW 23:44:29 10° N visible
03 Aug - 04:33:07 10° NNW 04:36:14 34° NE 04:39:20 10° ESE visible
03 Aug - 06:10:11 10° WNW 06:12:48 21° SW 06:15:25 10° S daylight
03 Aug - 21:13:37 10° SSW 21:16:46 41° SE 21:19:56 10° ENE visible
03 Aug - 22:50:59 10° W 22:53:36 21° NNW 22:56:14 10° NNE visible
